Tracking 30970 objects as of 3-Jul-2025
HD Live streaming from Space Station
objects crossing your sky now

COSMOS 2251 DEB

Track COSMOS 2251 DEB now!
10-day predictions


NORAD ID: 37530
Int'l Code: 1993-036BNK
Perigee: 765.3 km
Apogee: 804.0 km
Inclination: 74.0 °
Period: 100.4 minutes
Semi major axis: 7155 km
RCS: 0.0042 m2 (small)
Launch date: June 16, 1993
Source: Commonwealth of Independent States (former USSR) (CIS)
Launch site: PLESETSK MISSILE AND SPACE COMPLEX (PKMTR)

Note: This is SATELLITE DEBRIS
Your satellite tracking list
Your tracking list is empty




NASA's NSSDC Master Catalog

Two Line Element Set (TLE):
1 37530U 93036BNK 25183.51679758  .00000309  00000-0  11900-3 0  9992
2 37530  74.0359 272.4931 0027061  15.0236 359.3965 14.34256280828923
Source of the keplerian elements: AFSPC